Tacoma Narrows, WA
on Sunday, February 3, 2013

Sunday
Previous Day Next Day
Daily Summary
 ActualAverageRecord
Temperature
Mean Temperature °F °F  
Max Temperature 46°F 46°F 57°F (2000)
Min Temperature 37°F 37°F 30°F (2009)
Degree Days
Heating Degree Days 24    
Moisture
Dew Point 38°F   
Average Humidity 88    
Maximum Humidity 100    
Minimum Humidity 76    
Precipitation
Precipitation 0.02 in in in ()
Wind
Wind Speed 5 mph   
Max Wind Speed 10 mph   
Max Gust Speed mph   
Visibility 8 miles   
Events Fog , Rain   
Averages and records for this station are not official NWS values.
Key: T is trace of precipitation, MM is missing value
Source: NWS Daily Summary
Seasonal Weather Averages
Time(PST)TemperatureDew PointHumidity Pressure Visibility Wind DirectionWind SpeedGust SpeedPrecipitationEvents Conditions
12:53 AM 39.0°F 37.0°F 93% 30.29 in 0.2 miles SSE 4.6 mph - N/A Fog Fog
1:49 AM 39.2°F 37.4°F 93% 30.28 in 0.2 miles South 4.6 mph - N/A Fog Fog
1:53 AM 39.0°F 37.0°F 93% 30.29 in 0.2 miles South 4.6 mph - N/A Fog Fog
2:03 AM 39.2°F 37.4°F 93% 30.27 in 0.8 miles South 6.9 mph - N/A   Mist
2:07 AM 39.2°F 37.4°F 93% 30.27 in 2.5 miles South 6.9 mph - N/A   Overcast
2:14 AM 39.2°F 37.4°F 93% 30.27 in 6.0 miles South 8.1 mph - N/A   Overcast
2:53 AM 37.9°F 37.0°F 97% 30.28 in 4.0 miles Calm Calm - N/A   Overcast
3:08 AM 37.4°F 37.4°F 100% 30.27 in 2.0 miles South 4.6 mph - N/A   Overcast
3:26 AM 37.4°F 37.4°F 100% 30.26 in 5.0 miles SE 3.5 mph - N/A   Overcast
3:34 AM 37.4°F 37.4°F 100% 30.26 in 6.0 miles Calm Calm - N/A   Overcast
3:53 AM 37.9°F 37.0°F 97% 30.27 in 7.0 miles SSE 3.5 mph - N/A   Overcast
4:53 AM 37.9°F 37.0°F 97% 30.28 in 10.0 miles Calm Calm - N/A   Overcast
5:18 AM 37.4°F 35.6°F 93% 30.27 in 10.0 miles East 3.5 mph - N/A   Overcast
5:36 AM 37.4°F 35.6°F 93% 30.29 in 10.0 miles Calm Calm - N/A   Overcast
5:53 AM 37.9°F 36.0°F 93% 30.29 in 9.0 miles Calm Calm - N/A   Overcast
6:28 AM 39.2°F 35.6°F 87% 30.28 in 9.0 miles Calm Calm - N/A   Overcast
6:44 AM 39.2°F 35.6°F 87% 30.29 in 8.0 miles South 3.5 mph - N/A   Overcast
6:53 AM 39.0°F 36.0°F 89% 30.30 in 8.0 miles Calm Calm - N/A   Overcast
7:36 AM 39.2°F 37.4°F 93% 30.29 in 9.0 miles South 4.6 mph - N/A   Overcast
7:51 AM 39.2°F 37.4°F 93% 30.29 in 8.0 miles SE 5.8 mph - N/A   Overcast
7:53 AM 39.9°F 37.0°F 89% 30.30 in 10.0 miles SSE 5.8 mph - N/A   Overcast
8:53 AM 41.0°F 37.0°F 86% 30.31 in 10.0 miles South 6.9 mph - N/A   Mostly Cloudy
9:53 AM 41.0°F 37.9°F 89% 30.31 in 10.0 miles SSE 5.8 mph - N/A   Mostly Cloudy
10:53 AM 42.1°F 37.9°F 85% 30.30 in 10.0 miles SSE 3.5 mph - N/A   Mostly Cloudy
11:00 AM 42.8°F 37.4°F 81% 30.30 in 10.0 miles South 3.5 mph - N/A   Overcast
11:53 AM 43.0°F 39.0°F 86% 30.30 in 10.0 miles Calm Calm - N/A   Overcast
12:53 PM 46.0°F 39.9°F 79% 30.28 in 10.0 miles South 6.9 mph - N/A   Mostly Cloudy
1:53 PM 46.0°F 39.0°F 76% 30.27 in 10.0 miles South 8.1 mph - N/A   Overcast
2:00 PM 46.4°F 39.2°F 76% 30.26 in 10.0 miles South 8.1 mph - N/A   Overcast
2:07 PM 46.4°F 39.2°F 76% 30.25 in 10.0 miles South 9.2 mph - N/A   Overcast
2:08 PM 46.4°F 39.2°F 76% 30.25 in 10.0 miles South 8.1 mph - N/A   Overcast
2:53 PM 46.0°F 39.9°F 79% 30.26 in 10.0 miles South 6.9 mph - N/A   Overcast
3:53 PM 46.0°F 39.9°F 79% 30.26 in 10.0 miles South 5.8 mph - N/A   Overcast
4:51 PM 44.6°F 39.2°F 81% 30.25 in 5.0 miles South 10.4 mph - N/A   Haze
4:53 PM 45.0°F 39.9°F 82% 30.26 in 5.0 miles South 9.2 mph - N/A   Haze
5:53 PM 44.1°F 41.0°F 89% 30.26 in 9.0 miles South 8.1 mph - 0.00 in Rain Light Rain
6:53 PM 45.0°F 41.0°F 86% 30.26 in 10.0 miles South 6.9 mph - 0.01 in Rain Light Rain
7:53 PM 44.1°F 41.0°F 89% 30.24 in 10.0 miles South 8.1 mph - 0.01 in Rain Light Rain
8:53 PM 44.1°F 41.0°F 89% 30.23 in 10.0 miles South 9.2 mph - 0.00 in   Overcast
9:53 PM 45.0°F 41.0°F 86% 30.24 in 10.0 miles SSW 6.9 mph - N/A   Overcast
10:53 PM 44.1°F 41.0°F 89% 30.23 in 9.0 miles SSW 6.9 mph - N/A   Overcast
11:53 PM 44.1°F 41.0°F 89% 30.22 in 9.0 miles South 6.9 mph - N/A   Overcast
Moon Phase
Feb. 03 Feb. 10 Feb. 17 Feb. 25 Mar. 04
Sunrise:07:32 AM (PST) Moon Rise:01:08 AM (PST)2/3
Sunset:05:16 PM (PST) Moon Set:10:54 AM (PST)2/3

Copyright © 2014 The Weather Underground, Inc.